C/2017 AB5 ( PanSTARRS )

Japanese version
Home page
Updated on January 9, 2018

---------------------------------------------------------------------

* Profile

Discovery Date January 3, 2017
Magnitude 21.3 mag
Discoverer Pan-STARRS 1 telescope (Haleakala)

* Orbital Elements

Epoch 2018 Feb. 11.0 TT = JDT 2458160.5
T 2018 Feb. 17.04510 TT                                 MPCW
q   9.2171369            (2000.0)            P               Q
z  +0.0000219      Peri.   78.35247     -0.41212949     -0.83541477
 +/-0.0000051      Node    42.69219     +0.47412506     -0.53745330
e   0.9997983      Incl.   32.43143     +0.77804544     -0.11500484
From 40 observations 2017 Jan. 3-2018 Jan. 7, mean residual 0".3.

* Magnitudes Graph

        m1 = 5.5 + 5 log d + 10.0 log r

---------------------------------------------------------------------

The orbital elements are published on M.P.E.C. 2018-A26.
The magnitudes graphs are made with Comet for Windows.

---------------------------------------------------------------------

Copyright(C) Seiichi Yoshida (comet@aerith.net). All rights reserved.